Location: Bouchoir
(49.7480°N, 2.6722°E)
Time: 19:01:04
(UTC+00:00)

Daily predictions for brighter satellites

Satellite Brightness Start Highest point End
(mag) Time Altitude Azimuth Time Altitude Azimuth Time Altitude Azimuth
Cosmos 2016 Rocket 4.1 16:25:45 10° S 16:32:01 72° E 16:38:23 10° NNE
CBERS-1 4.0 16:29:23 10° SSE 16:34:30 81° ENE 16:39:39 10° NNW
Tsikada Rocket 4.1 16:28:37 10° N 16:35:02 67° ENE 16:41:21 10° SSE
Cosmos 2084 Rocket 3.5 16:34:58 10° SW 16:39:09 78° NW 16:43:22 10° NE
SMAP 3.2 16:37:49 10° SE 16:42:19 52° ENE 16:46:51 10° N
Cosmos 44 Rocket 4.4 16:39:18 10° S 16:43:14 26° ESE 16:47:17 10° ENE
Cosmos 540 Rocket 3.7 16:39:03 10° NNW 16:44:03 48° ENE 16:48:58 10° SE
SJ 16-02 3.2 16:44:16 10° ESE 16:45:56 12° E 16:47:38 10° ENE
Cosmos 1869 3.9 16:44:40 10° SSE 16:47:41 27° E 16:50:42 10° NNE
YAOGAN 1 4.1 16:46:37 10° E 16:49:11 16° ENE 16:51:44 10° NNE
IGS 5A 3.3 16:45:26 10° SSE 16:49:23 86° E 16:53:24 10° NNW
Cosmos 1763 Rocket 3.5 16:47:20 10° NNW 16:52:33 64° ENE 16:57:38 10° SE
SL-16 R/B 2.6 16:46:32 10° NNE 16:52:51 88° WNW 16:59:07 10° SSW
Landsat 7 3.9 16:50:01 10° SE 16:54:29 49° ENE 16:58:59 10° N
SAR-Lupe-5 4.2 16:52:14 10° NNE 16:54:52 84° ESE 16:57:31 10° SSW
Timation 1 Rocket 4.3 16:52:10 10° NNW 16:58:09 70° ENE 17:04:05 10° SE
RESURS DK-1 2.2 16:54:13 10° NNW 16:58:13 68° ENE 17:02:12 10° SE
Cosmos 1140 Rocket 3.5 16:54:15 10° SSW 16:59:26 87° ESE 17:04:37 10° NNE
Aureole 3 Rocket 3.5 16:58:19 10° SE 17:00:46 22° E 17:03:23 10° NE
CZ-4C R/B 3.3 16:56:32 10° W 17:00:49 31° NNW 17:06:13 10° NE
UNK 3.7 17:01:11 10° NNE 17:05:49 70° ESE 17:10:24 10° S
Meteor 1-28 Rocket 3.4 17:02:37 10° N 17:05:58 63° WNW 17:09:17 10° SSW
Meteor 2-12 Rocket 4.4 17:02:57 10° N 17:09:03 69° ENE 17:15:05 10° SSE
Cosmos 1400 Rocket 4.1 17:07:36 10° SE 17:10:12 18° E 17:11:08 16° ENE
SJ-12 3.6 17:07:04 10° SSE 17:10:49 66° ENE 17:14:35 10° N
Cosmos 1536 Rocket 4.3 17:07:42 10° N 17:11:39 30° ENE 17:15:32 10° SE
SAR-Lupe-3 4.2 17:13:47 15° NE 17:15:40 40° E 17:18:10 10° S
Helios 1A Rocket 4.5 17:16:48 13° ESE 17:16:48 13° ESE 17:17:42 10° SE
Okean 2 Rocket 4.2 17:14:09 10° SE 17:17:35 23° E 17:20:03 15° NE
CORIOLIS 4.4 17:15:08 10° S 17:20:28 72° WSW 17:25:50 10° NNW
IRS-1C 4.2 17:16:37 10° SSE 17:21:57 87° WSW 17:27:19 10° NNW
ATLAS CENTAUR R/B 3.4 17:23:13 10° WNW 17:25:01 13° NNW 17:26:47 10° N
SL-12 R/B(2) 4.4 17:18:17 10° SSW 17:26:12 72° SE 17:35:47 11° NE
COSMO-SKYMED 1 3.5 17:26:49 22° ENE 17:27:42 23° E 17:31:02 10° SSE
Resurs 01 Rocket 3.4 17:30:11 15° NE 17:30:11 15° NE 17:31:47 10° NNE
Cosmos 1943 Rocket 2.1 17:24:19 10° SSW 17:29:53 72° ESE 17:35:17 11° NNE
Timation 2 Rocket 4.2 17:24:21 10° SSW 17:31:13 78° ESE 17:38:05 10° NNE
Cosmos 841 Rocket 3.8 17:28:14 10° NNW 17:33:14 42° ENE 17:38:13 10° SE
Cosmos 2058 2.7 17:29:47 10° N 17:33:45 63° ENE 17:37:42 10° SSE
Cosmos 2251 Rocket 3.7 17:28:52 10° S 17:33:59 53° ESE 17:38:36 13° NNE
BREEZE-M DEB (TANK) 2.4 17:34:37 10° WSW 17:37:07 60° SSE 17:39:49 24° E
Cosmos 2082 Rocket 2.1 17:32:48 10° NNW 17:38:27 82° ENE 17:44:04 10° SSE
ATLAS 2AS CENTAUR R/B 3.3 17:32:31 10° NW 17:38:48 37° NNE 17:42:14 23° ENE
Cosmos 1346 Rocket 4.2 17:37:05 10° N 17:38:39 19° NNE 17:38:39 19° NNE
Cosmos 2278 Rocket 2.1 17:37:43 10° SSW 17:43:22 84° ESE 17:48:33 13° NNE
IRAS Rocket 4.2 17:38:08 10° SE 17:43:33 58° ENE 17:48:58 10° N
Cosmos 1602 3.0 17:41:57 10° N 17:45:02 86° WSW 17:48:05 10° S
MOS 1 Rocket 3.1 17:41:20 10° SSE 17:45:39 89° E 17:50:14 10° NNW
Cosmos 468 Rocket 4.0 17:42:26 10° NNW 17:47:40 84° WSW 17:52:48 10° SSE
Cosmos 1464 Rocket 4.0 17:43:54 10° S 17:50:05 63° E 17:56:13 10° NNE
ARIANE 5 R/B 3.4 17:45:54 10° S 17:50:42 49° W 17:55:35 10° NNW
CZ-2D R/B 3.3 17:47:18 10° SSE 17:51:26 72° ENE 17:55:40 10° N
Cosmos 2369 Rocket 4.2 17:49:53 10° SE 17:50:08 11° SE 17:50:08 11° SE
USA 215 4.0 17:48:52 10° SSE 17:55:12 51° SW 18:01:34 10° WNW
Cosmos 1862 2.9 17:52:33 10° N 17:56:11 82° E 17:59:49 10° SSE
PSLV R/B 3.3 17:53:17 10° SSE 17:57:15 58° ENE 18:01:13 10° N
Geosat FO 4.4 17:57:42 23° SSE 17:59:19 63° WSW 18:02:11 10° NW
Cosmos 2151 Rocket 3.5 17:56:10 10° S 18:00:38 75° E 18:05:04 10° NNE
Cosmos 1190 Rocket 3.9 17:56:28 10° SSW 18:01:45 75° ESE 18:05:26 20° NNE
ISS -3.9 18:00:19 10° WSW 18:03:40 84° NNW 18:03:52 77° NE
Cosmos 2034 Rocket 4.0 17:58:03 10° SSE 18:04:02 54° E 18:10:09 10° NNE
Cosmos 1812 3.1 18:02:06 10° SSW 18:04:53 43° WNW 18:06:21 23° NNW
Cosmos 676 Rocket 4.1 17:59:47 10° S 18:04:53 51° ESE 18:06:42 35° NE
Okean 1 Rocket 3.0 18:03:01 10° S 18:07:19 57° E 18:08:25 43° NE
SKYMED 2 3.4 18:03:51 15° NNE 18:07:25 81° ESE 18:11:46 10° SSW
Cosmos 1656 Rocket 4.1 18:02:27 10° S 18:07:32 38° ESE 18:08:00 38° E
Cosmos 220 Rocket 4.3 18:07:58 10° NNW 18:11:16 44° NNE 18:11:16 44° NNE
Cosmos 407 Rocket 4.4 18:07:17 10° SW 18:12:16 47° WNW 18:17:08 11° NNE
Sich 1 Rocket 3.5 18:08:34 10° S 18:13:04 66° E 18:14:56 34° NNE
USA 281 3.6 18:11:29 35° E 18:13:06 40° NE 18:19:10 10° NNW
COSMOS 2406 3.1 18:08:25 10° NNW 18:14:09 85° ENE 18:19:01 14° SSE
Cosmos 1954 Rocket 3.9 18:08:54 10° SSW 18:14:10 78° ESE 18:16:53 29° NNE
Cosmos 1092 Rocket 4.0 18:10:02 10° N 18:16:11 55° ENE 18:22:13 10° SSE
BlueWalker 3 4.1 18:14:46 10° S 18:15:40 14° S 18:15:40 14° S
SL-19 R/B 4.0 18:13:33 10° SSE 18:18:46 87° WSW 18:24:03 10° NNW
Cosmos 2026 Rocket 3.8 18:15:09 10° N 18:21:14 66° ENE 18:27:20 10° SSE
SJ 16-02 1.2 18:19:04 10° SSW 18:23:24 82° WNW 18:24:29 50° NNE
Cosmos 44 Rocket 3.7 18:19:34 10° SW 18:24:19 58° NW 18:26:14 34° NNE
YAOGAN 1 2.7 18:20:16 10° S 18:24:31 72° WSW 18:28:48 10° NNW
SPOT 1/Viking Rocket 4.1 18:21:13 10° S 18:26:18 58° W 18:31:26 10° NNW
Cosmos 2344 3.8 18:24:12 10° NW 18:32:03 81° NE 18:38:34 25° SE
Cosmos 2297 Rocket 4.3 18:31:52 10° N 18:33:09 12° NNE 18:33:09 12° NNE
Meteor 2-3 Rocket 3.6 18:31:26 10° NNW 18:37:10 87° WSW 18:42:48 10° S
Resurs 1-3 4.2 18:34:51 10° S 18:39:04 55° W 18:43:19 10° NNW
Cosmos 1400 Rocket 3.9 18:41:45 10° SW 18:45:22 41° WNW 18:45:47 39° NW
Cosmos 304 Rocket 4.0 18:43:33 10° SSW 18:48:15 66° WNW 18:48:47 60° NNW
Cosmos 371 Rocket 3.5 18:45:19 10° SSW 18:50:05 66° WNW 18:50:35 61° NNW
CZ-4C R/B 3.9 18:46:31 10° NW 18:50:57 23° N 18:51:49 22° NNE
Cosmos 1627 Rocket 4.5 18:47:49 10° NNW 18:53:58 78° W 19:00:08 10° S
Okean 2 Rocket 4.3 18:51:09 10° SW 18:55:18 41° WNW 18:57:20 25° NNW
COSMO-SKYMED 1 3.7 19:03:10 39° WNW 19:03:10 39° WNW 19:07:00 10° SW
Resurs 01 Rocket 3.6 19:07:36 22° NNW 19:07:36 22° NNW 19:09:13 10° NNW
Geosat 4.4 19:05:27 59° SW 19:05:41 60° WSW 19:10:39 10° NW
BREEZE-M DEB (TANK) 3.8 19:08:34 10° W 19:11:47 76° WSW 19:11:47 76° WSW
Cosmos 1943 Rocket 4.0 19:09:28 10° W 19:14:09 26° NW 19:16:48 19° N
Cosmos 2278 Rocket 4.1 19:23:39 10° W 19:28:09 24° NW 19:30:23 19° N
ATLAS 2AS CENTAUR R/B 2.7 19:23:32 10° NW 19:29:41 73° WNW 19:29:41 73° WNW
Cosmos 1634 Rocket 4.5 19:29:36 10° SSW 19:42:27 - N 19:34:50 55° WSW
Cosmos 2369 Rocket 4.3 19:30:48 10° SSW 19:31:59 17° SSW 19:31:59 17° SSW
USA 281 3.9 19:58:22 50° W 19:58:22 50° W 20:03:54 10° NNW
SJ 16-02 4.4 20:00:08 10° WNW 20:01:03 12° WNW 20:01:03 12° WNW
